This demonstration page uses our WeatherBlox Daily Observations layout. Learn more.

40.92945, -100.16068

Hourly Observations for March 10, 2019

Temp ( °F °C ) Dew Point ( °F °C ) Humidity (%) Winds ( mph kmh ) Pressure ( in mb ) Visibility ( mi km ) Precip ( " mm )
12:15 am 00:15 Clear 23 -5.2 18 -7.9 82 82 NW 14 22 30.18 1022 10 16.09344 0 0
12:35 am 00:35 Clear 22 -5.5 17 -8.5 80 80 NW 9 15 30.15 1021 10 16.09344 0 0
12:55 am 00:55 Clear 21 -6.1 16 -9 80 80 WNW 9 15 30.18 1022 10 16.09344 0 0
1:15 am 01:15 Clear 20 -6.4 16 -9.1 81 81 W 12 19 30.21 1023 10 16.09344 0 0
1:35 am 01:35 Clear 22 -5.7 16 -9 78 78 WSW 10 17 30.21 1023 10 16.09344 0 0
1:55 am 01:55 Clear 23 -5.1 16 -9 74 74 WSW 8 13 30.21 1023 10 16.09344 0 0
3:15 am 03:15 Clear 22 -5.3 15 -9.3 74 74 W 10 17 30.21 1023 10 16.09344 0 0
3:35 am 03:35 Clear 22 -5.5 15 -9.3 75 75 W 10 17 30.21 1023 10 16.09344 0 0
3:55 am 03:55 Clear 22 -5.5 15 -9.4 74 74 W 8 13 30.21 1023 10 16.09344 0 0
4:15 am 04:15 Clear 22 -5.6 15 -9.5 74 74 WNW 10 17 30.21 1023 10 16.09344 0 0
4:35 am 04:35 Clear 22 -5.5 16 -9.1 76 76 WNW 12 19 30.21 1023 10 16.09344 0 0
4:55 am 04:55 Clear 23 -5 16 -9 74 74 NW 12 19 30.21 1023 10 16.09344 0 0
5:15 am 05:15 Clear 22 -5.4 16 -9.1 75 75 NW 10 17 30.21 1023 10 16.09344 0 0
5:35 am 05:35 Partly Cloudy 22 -5.5 15 -9.2 75 75 WNW 9 15 30.24 1024 10 16.09344 0 0
5:55 am 05:55 Partly Cloudy 21 -6.2 15 -9.7 77 77 NW 7 11 30.24 1024 10 16.09344 0 0
6:15 am 06:15 Partly Cloudy 19 -7.1 13 -10.5 77 77 NNW 7 11 30.24 1024 10 16.09344 0 0
6:35 am 06:35 Partly Cloudy 18 -7.6 13 -10.5 80 80 NW 7 11 30.3 1026 10 16.09344 0 0
6:55 am 06:55 Clear 18 -7.7 13 -10.5 81 81 W 6 9 30.3 1026 10 16.09344 0 0
7:15 am 07:15 Clear 18 -7.8 13 -10.6 81 81 W 7 11 30.33 1027 10 16.09344 0 0
7:35 am 07:35 Clear 18 -7.7 13 -10.6 80 80 WNW 7 11 30.33 1027 10 16.09344 0 0
7:55 am 07:55 Clear 18 -7.9 13 -10.8 80 80 WNW 5 7 30.33 1027 10 16.09344 0 0
8:15 am 08:15 Sunny 18 -7.7 13 -10.5 81 81 NW 6 9 30.36 1028 10 16.09344 0 0
8:35 am 08:35 Sunny 19 -7.3 14 -10 81 81 NW 8 13 30.36 1028 10 16.09344 0 0
8:55 am 08:55 Sunny 19 -7.2 14 -9.9 81 81 WNW 5 7 30.36 1028 10 16.09344 0 0
9:15 am 09:15 Sunny 20 -6.4 15 -9.2 81 81 WNW 7 11 30.33 1027 10 16.09344 0 0
9:35 am 09:35 Sunny 22 -5.4 16 -8.8 77 77 WNW 7 11 30.36 1028 10 16.09344 0 0
9:55 am 09:55 Sunny 24 -4.3 18 -7.8 77 77 NW 8 13 30.33 1027 10 16.09344 0 0
10:15 am 10:15 Sunny 26 -3.5 19 -7.4 75 75 NNW 7 11 30.3 1026 10 16.09344 0 0
10:35 am 10:35 Sunny 27 -2.7 20 -6.7 74 74 NNW 3 6 30.33 1027 10 16.09344 0 0
10:55 am 10:55 Sunny 30 -1.2 20 -6.6 67 67 WNW 5 7 30.33 1027 10 16.09344 0 0
11:15 am 11:15 Sunny 30 -1 20 -6.5 67 67 NW 5 7 30.33 1027 10 16.09344 0 0
11:35 am 11:35 Sunny 32 -0.1 21 -6 65 65 NW 7 11 30.3 1026 10 16.09344 0 0
11:55 am 11:55 Mostly Cloudy 32 0.2 22 -5.3 67 67 NNW 7 11 30.3 1026 10 16.09344 0 0
12:15 pm 12:15 Mostly Cloudy 33 0.6 22 -5.4 65 65 Calm 30.3 1026 10 16.09344 0 0
12:35 pm 12:35 Partly Cloudy 34 1.3 21 -5.9 59 59 Calm 30.33 1027 10 16.09344 0 0
12:55 pm 12:55 Sunny 35 1.5 22 -5.6 60 60 Calm 30.3 1026 10 16.09344 0 0
1:15 pm 13:15 Sunny 35 1.7 22 -5.5 59 59 Calm 30.3 1026 10 16.09344 0 0
1:35 pm 13:35 Sunny 37 3 23 -5 56 56 SSE 5 7 30.27 1025 10 16.09344 0 0
1:55 pm 13:55 Sunny 38 3.5 23 -5.2 53 53 SSE 6 9 30.27 1025 10 16.09344 0 0
2:15 pm 14:15 Mostly Cloudy 38 3.6 23 -5.1 53 53 SE 9 15 30.27 1025 10 16.09344 0 0
2:35 pm 14:35 Cloudy 39 3.9 22 -5.6 50 50 S 7 11 30.27 1025 10 16.09344 0 0
2:55 pm 14:55 Cloudy 39 3.8 23 -4.9 53 53 SSE 8 13 30.27 1025 10 16.09344 0 0
3:15 pm 15:15 Cloudy 39 4 22 -5.4 51 51 SSE 9 15 30.24 1024 10 16.09344 0 0
3:35 pm 15:35 Mostly Cloudy 39 4.1 21 -6.2 47 47 SSE 9 15 30.24 1024 10 16.09344 0 0
3:55 pm 15:55 Partly Cloudy 39 4.1 22 -5.6 50 50 SSE 10 17 30.24 1024 10 16.09344 0 0
4:15 pm 16:15 Mostly Cloudy 40 4.2 21 -6 48 48 SE 10 17 30.24 1024 10 16.09344 0 0
4:35 pm 16:35 Partly Cloudy 39 4.1 22 -5.7 49 49 SE 10 17 30.27 1025 10 16.09344 0 0
4:55 pm 16:55 Sunny 39 3.9 24 -4.5 55 55 ESE 13 20 30.24 1024 10 16.09344 0 0
5:15 pm 17:15 Sunny 38 3.5 22 -5.5 52 52 SE 12 19 30.24 1024 10 16.09344 0 0
5:35 pm 17:35 Sunny 38 3.5 23 -5.1 54 54 SE 13 20 30.24 1024 10 16.09344 0 0
5:55 pm 17:55 Sunny 37 3 24 -4.5 58 58 ESE 13 20 30.24 1024 10 16.09344 0 0
6:15 pm 18:15 Sunny 37 2.8 24 -4.2 60 60 ESE 10 17 30.24 1024 10 16.09344 0 0
6:35 pm 18:35 Sunny 37 2.6 23 -5.1 57 57 ESE 13 20 30.24 1024 10 16.09344 0 0
6:55 pm 18:55 Sunny 36 2.3 23 -5 59 59 ESE 9 15 30.24 1024 10 16.09344 0 0
7:15 pm 19:15 Sunny 36 2 24 -4.6 62 62 ESE 9 15 30.27 1025 10 16.09344 0 0
7:35 pm 19:35 Sunny 35 1.5 24 -4.6 64 64 ESE 10 17 30.27 1025 10 16.09344 0 0
7:55 pm 19:55 Clear 34 1 23 -4.9 65 65 ESE 9 15 30.27 1025 10 16.09344 0 0
8:15 pm 20:15 Clear 33 0.7 24 -4.7 67 67 SE 8 13 30.27 1025 10 16.09344 0 0
8:35 pm 20:35 Clear 32 0.1 23 -4.8 70 70 SE 7 11 30.3 1026 10 16.09344 0 0
8:55 pm 20:55 Clear 32 0 24 -4.6 71 71 SSE 10 17 30.3 1026 10 16.09344 0 0
9:15 pm 21:15 Clear 32 -0.2 24 -4.5 73 73 SE 10 17 30.3 1026 10 16.09344 0 0
9:35 pm 21:35 Clear 32 -0.2 24 -4.3 74 74 SE 9 15 30.3 1026 10 16.09344 0 0
9:55 pm 21:55 Clear 31 -0.5 24 -4.5 75 75 SE 7 11 30.3 1026 10 16.09344 0 0
10:15 pm 22:15 Clear 30 -1.1 24 -4.5 78 78 SE 8 13 30.33 1027 10 16.09344 0 0
10:35 pm 22:35 Clear 30 -1.2 24 -4.5 79 79 SSE 9 15 30.33 1027 10 16.09344 0 0
10:55 pm 22:55 Clear 31 -0.7 24 -4.2 77 77 SE 10 17 30.36 1028 10 16.09344 0 0
11:15 pm 23:15 Clear 30 -0.9 24 -4.5 77 77 SE 8 13 30.36 1028 10 16.09344 0 0
11:35 pm 23:35 Clear 30 -1.3 24 -4.6 79 79 SE 7 11 30.36 1028 10 16.09344 0 0
11:55 pm 23:55 Clear 29 -1.6 24 -4.6 80 80 SE 7 11 30.36 1028 10 16.09344 0 0

Powered by AerisWeather